Location: Dackenheim
(49.5215°N, 8.1854°E)
Time: 06:18:42
(UTC+00:00)

AO-85 - Pass Details

Date: 20 March 2026
Orbit: 507 x 686 km, 64.8° (Epoch: 14 April)

Event Time Altitude Azimuth Distance (km) Brightness Sun altitude
Exits shadow 01:43:00 12° 72° (ENE) 1,627 ? -33.6°
Drops below altitude 10° 01:43:26 10° 68° (ENE) 1,753 ? -33.5°
Sets 01:45:59 0° 51° (NE) 2,630 ? -33.3°
